Regional Weather Roundup
Issued by NWS

Home | Current Version | Previous Version | Text Only | Print | Product List | Glossary Off
Versions: 1 2 3 4 5 6 7 8 9 10 11 12 13 14 15 16 17 18 19 20 21 22 23 24 25 26 27

000
ASUS45 KCYS 231210
RWRWY

WYOMING REGIONAL WEATHER ROUNDUP
NATIONAL WEATHER SERVICE CHEYENNE WY
600 AM MDT MON OCT 23 2017

NOTE:  "FAIR" INDICATES FEW OR NO CLOUDS BELOW 12,000 FEET
WITH NO SIGNIFICANT WEATHER AND/OR OBSTRUCTIONS TO VISIBILITY.

WYZ001-231300-
YELLOWSTONE NATIONAL PARK

CITY           SKY/WX    TMP DP  RH WIND       PRES   REMARKS
LK YELLOWSTONE   N/A     26  22  84 CALM      30.51R
6HR MIN TEMP:  25; 6HR MAX TEMP:  33;

W YELLOWSTONE  NOT AVBL

$$
WYZ002>013-054>058-071-098>099-231300-
NORTHERN WYOMING

CITY           SKY/WX    TMP DP  RH WIND       PRES   REMARKS
JACKSON        MOCLDY    36  21  54 W6        30.49R WCI  31
CODY           FAIR      45  18  34 W7G17     30.40R
GREYBULL       FAIR      44  20  38 NW15      30.36R
6HR MIN TEMP:  43; 6HR MAX TEMP:  50;

WORLAND        FAIR      41  21  44 VRB6      30.37R
6HR MIN TEMP:  36; 6HR MAX TEMP:  49;

SHERIDAN       FAIR      42  21  43 NW10      30.32R
6HR MIN TEMP:  41; 6HR MAX TEMP:  51;

BUFFALO        FAIR      41  16  36 NW14      30.33R
6HR MIN TEMP:  39; 6HR MAX TEMP:  49; 6HR PCP: TRACE;

GILLETTE       FAIR      41  22  46 NW20G30   30.28R
6HR MIN TEMP:  41; 6HR MAX TEMP:  50;

HULETT         FAIR      43  21  42 W9        30.26R
NEWCASTLE      FAIR      37  21  52 NW13      30.27R WCI  29

$$
WYZ014>020-022>026-101>103-231300-
CENTRAL WYOMING

CITY           SKY/WX    TMP DP  RH WIND       PRES   REMARKS
BIG PINEY      FAIR      39  27  62 NW14      30.42R WCI  31
6HR MIN TEMP:  39; 6HR MAX TEMP:  48;

PINEDALE       FAIR      36  28  75 NW14      30.42S WCI  27
DUBOIS         PTSUNNY   34  23  64 NW28G35   30.40R WCI  20
LANDER         FAIR      42  31  64 VRB5      30.37R
6HR MIN TEMP:  38; 6HR MAX TEMP:  52;

RIVERTON       MOCLDY    37  29  72 E8        30.38R WCI  31
6HR MIN TEMP:  37; 6HR MAX TEMP:  49;

CASPER         CLOUDY    42  26  53 MISG      30.35R
6HR MIN TEMP:  39; 6HR MAX TEMP:  49;

DOUGLAS        CLOUDY    40  31  70 W6        30.36R
6HR MIN TEMP:  38; 6HR MAX TEMP:  55; 6HR PCP:  0.04;


$$
WYZ021-027>030-104>119-231300-
SOUTHERN WYOMING

CITY           SKY/WX    TMP DP  RH WIND       PRES   REMARKS
EVANSTON       FAIR      42  34  73 W16       30.51R
6HR MIN TEMP:  41; 6HR MAX TEMP:  50;

KEMMERER       FAIR      43  30  61 W13G25    30.48R
FORT BRIDGER   FAIR      44  33  65 W18G25    30.52S
ROCK SPRINGS   FAIR      44  30  57 W18       30.43R
6HR MIN TEMP:  44; 6HR MAX TEMP:  47;

DIXON          FAIR      48  31  52 W14       30.47R
RAWLINS        FAIR      44  29  55 W21G35    30.38R
6HR MIN TEMP:  44; 6HR MAX TEMP:  49;

SARATOGA       FAIR      45  30  57 W18G26    30.40R
LARAMIE        FAIR      45  26  47 W25G37    30.32R
6HR MIN TEMP:  45; 6HR MAX TEMP:  49;

CHEYENNE       CLOUDY    37  31  78 N17G31    30.32R WCI  27
6HR MIN TEMP:  37; 6HR MAX TEMP:  55;

TORRINGTON     LGT RAIN  45  23  42 NW18G26   30.31R
6HR MIN TEMP:  43; 6HR MAX TEMP:  61; 6HR PCP: TRACE;

PINE BLUFFS    CLOUDY    37  32  81 N24G33    30.33R WCI  26

$$




USA.gov is the U.S. government's official web portal to all federal, state and local government web resources and services.